Location: Boss Branch
(32.3799°N, 97.2508°W)
Time: 01:04:02
(UTC+00:00)

Tiros 1 - Visible Passes

Search period start: 05 November 2024 00:00
Search period end: 15 November 2024 00:00
Orbit: 622 x 654 km, 48.4° (Epoch: 04 November)

Date Brightness Start Highest point End Pass type
(mag) Time Alt. Az. Time Alt. Az. Time Alt. Az.
05 Nov 8.9 00:19:58 10° SSE 00:22:50 16° SE 00:24:52 13° E visible
05 Nov 8.6 01:59:40 10° SW 02:02:23 34° WSW 02:02:23 34° WSW visible
06 Nov 7.8 00:41:17 10° SSW 00:45:39 39° SE 00:47:33 27° E visible
06 Nov 9.6 02:23:19 10° W 02:25:03 20° W 02:25:03 20° W visible
07 Nov 7.1 01:03:56 10° SW 01:08:38 88° NW 01:10:07 44° NE visible
07 Nov 10.3 02:47:36 10° WNW 02:47:38 10° WNW 02:47:38 10° WNW visible
08 Nov 8.0 01:27:23 10° WSW 01:31:51 41° NNW 01:32:36 38° N visible
09 Nov 7.1 00:08:11 10° SW 00:12:53 77° SE 00:17:29 11° NE visible
09 Nov 9.1 01:51:30 10° WNW 01:54:58 23° NNW 01:54:58 23° NNW visible
10 Nov 7.9 00:31:27 10° WSW 00:36:00 48° NW 00:39:46 15° NE visible
10 Nov 9.9 02:16:07 10° NW 02:17:15 13° NW 02:17:15 13° NW visible
11 Nov 8.8 00:55:24 10° W 00:59:21 26° NNW 01:01:58 16° NNE visible
12 Nov 9.3 01:19:54 10° WNW 01:22:55 17° NNW 01:24:06 15° N visible
12 Nov 8.6 23:59:17 10° W 00:03:25 29° NNW 00:07:34 10° NNE visible
13 Nov 9.7 01:44:42 10° NNW 01:46:11 12° NNW 01:46:11 12° NNW visible
14 Nov 9.2 00:23:39 10° WNW 00:26:53 18° NNW 00:30:10 10° NNE visible
